BMCB-11 Weather Reports


time (UTC)temp
C
wind
direction
speed
KPH
gust
KPH
rain 1hr
cm
rain 24hr
cm
rain mn
cm
humidity
%
barometer
mb
20260901230038 12 0 0.0 0.0 0.00 0.00 0.00 91 1023.0
20260901225039 12 0 0.0 0.0 0.00 0.00 0.00 91 1023.0
20260901223037 12 0 0.0 0.0 0.00 0.00 0.00 92 1023.1
20260901222036 12 0 0.0 0.0 0.00 0.00 0.00 92 1023.1
20260901221037 12 0 0.0 0.0 0.00 0.00 0.00 92 1023.1
20260901220038 12 0 0.0 0.0 0.00 0.00 0.00 92 1023.1
20260901214036 12 0 0.0 0.0 0.00 0.00 0.00 90 1023.3
20260901213035 12 0 0.0 0.0 0.00 0.00 0.00 90 1023.3
20260901212037 13 0 0.0 0.0 0.00 0.00 0.00 88 1023.3
20260901210037 13 0 0.0 0.0 0.00 0.00 0.00 86 1023.3
20260901205036 13 0 0.0 0.0 0.00 0.00 0.00 84 1023.3
20260901204035 13 0 0.0 0.0 0.00 0.00 0.00 85 1023.4
20260901202037 14 0 0.0 0.0 0.00 0.00 0.00 84 1023.3
20260901201036 15 0 0.0 0.0 0.00 0.00 0.00 82 1023.1
20260901200037 15 0 0.0 0.0 0.00 0.00 0.00 80 1023.1
20260901195025 15 0 0.0 0.0 0.00 0.00 0.00 79 1023.1
20260901194022 15 0 0.0 0.0 0.00 0.00 0.00 79 1023.0
20260901193022 16 0 0.0 0.0 0.00 0.00 0.00 79 1022.9
20260901192024 16 0 0.0 0.0 0.00 0.00 0.00 78 1022.9
20260901190022 17 0 0.0 0.0 0.00 0.00 0.00 75 1022.6
20260901185022 16 0 0.0 0.0 0.00 0.00 0.00 77 1022.5
20260901183022 17 0 0.0 0.0 0.00 0.00 0.00 74 1022.5
20260901182022 17 0 0.0 0.0 0.00 0.00 0.00 73 1022.5
20260901181020 17 0 0.0 0.0 0.00 0.00 0.00 71 1022.3
20260901180023 17 0 0.0 0.0 0.00 0.00 0.00 72 1022.4
20260901174021 18 0 0.0 0.0 0.00 0.00 0.00 70 1022.4
20260901173022 18 0 0.0 0.0 0.00 0.00 0.00 69 1022.4
20260901172022 19 0 0.0 0.0 0.00 0.00 0.00 67 1022.3
20260901171022 18 0 0.0 0.0 0.00 0.00 0.00 67 1022.3
20260901170021 19 0 0.0 0.0 0.00 0.00 0.00 66 1022.4
20260901165022 19 0 0.0 0.0 0.00 0.00 0.00 64 1022.4
20260901164020 20 0 0.0 0.0 0.00 0.00 0.00 62 1022.2
20260901163019 20 0 0.0 0.0 0.00 0.00 0.00 58 1022.1
20260901162019 21 0 0.0 0.0 0.00 0.00 0.00 58 1022.1
20260901161017 21 0 0.0 0.0 0.00 0.00 0.00 59 1022.1
20260901160017 20 0 0.0 0.0 0.00 0.00 0.00 62 1022.1
20260901155020 20 0 0.0 0.0 0.00 0.00 0.00 62 1022.2
20260901153015 20 0 0.0 0.0 0.00 0.00 0.00 63 1022.2
20260901152019 20 0 0.0 0.0 0.00 0.00 0.00 62 1022.2
20260901150016 20 0 0.0 0.0 0.00 0.00 0.00 62 1022.1
20260901145017 20 0 0.0 0.0 0.00 0.00 0.00 60 1022.2
20260901144015 20 0 0.0 0.0 0.00 0.00 0.00 60 1022.3
20260901143016 20 0 0.0 0.0 0.00 0.00 0.00 59 1022.3
20260901140017 20 0 0.0 0.0 0.00 0.00 0.00 62 1022.4
20260901134017 20 0 0.0 0.0 0.00 0.00 0.00 60 1022.3
20260901133016 20 0 0.0 0.0 0.00 0.00 0.00 60 1022.4
20260901132018 20 0 0.0 0.0 0.00 0.00 0.00 62 1022.4
20260901131016 20 0 0.0 0.0 0.00 0.00 0.00 65 1022.5
20260901130019 21 0 0.0 0.0 0.00 0.00 0.00 62 1022.5
20260901125016 20 0 0.0 0.0 0.00 0.00 0.00 62 1022.6
20260901124016 20 0 0.0 0.0 0.00 0.00 0.00 64 1022.7
20260901123015 20 0 0.0 0.0 0.00 0.00 0.00 63 1022.7
20260901122017 20 0 0.0 0.0 0.00 0.00 0.00 62 1022.7
20260901121016 20 0 0.0 0.0 0.00 0.00 0.00 64 1022.7
20260901120017 20 0 0.0 0.0 0.00 0.00 0.00 65 1022.7
20260901115015 20 0 0.0 0.0 0.00 0.00 0.00 70 1022.6
20260901114016 20 0 0.0 0.0 0.00 0.00 0.00 69 1022.6
20260901113016 20 0 0.0 0.0 0.00 0.00 0.00 66 1022.6
20260901111020 19 0 0.0 0.0 0.00 0.00 0.00 71 1022.8
20260901110016 20 0 0.0 0.0 0.00 0.00 0.00 69 1022.7
20260901105015 20 0 0.0 0.0 0.00 0.00 0.00 69 1022.7
20260901104015 20 0 0.0 0.0 0.00 0.00 0.00 71 1022.8
20260901103017 18 0 0.0 0.0 0.00 0.00 0.00 71 1022.9
20260901102016 18 0 0.0 0.0 0.00 0.00 0.00 71 1022.8
20260901101016 19 0 0.0 0.0 0.00 0.00 0.00 76 1022.7
20260901100022 19 0 0.0 0.0 0.00 0.00 0.00 78 1022.7
20260901095016 18 0 0.0 0.0 0.00 0.00 0.00 81 1022.8
20260901094020 18 0 0.0 0.0 0.00 0.00 0.00 82 1022.8
20260901091016 17 0 0.0 0.0 0.00 0.00 0.00 84 1022.7
20260901090016 17 0 0.0 0.0 0.00 0.00 0.00 85 1022.6
20260901085021 17 0 0.0 0.0 0.00 0.00 0.00 86 1022.5
20260901084016 17 0 0.0 0.0 0.00 0.00 0.00 87 1022.5
20260901083019 16 0 0.0 0.0 0.00 0.00 0.00 88 1022.4
20260901081016 16 0 0.0 0.0 0.00 0.00 0.00 89 1022.2
20260901080016 16 0 0.0 0.0 0.00 0.00 0.00 90 1022.2
20260901074016 15 0 0.0 0.0 0.00 0.00 0.00 91 1022.1
20260901072016 15 0 0.0 0.0 0.00 0.00 0.00 92 1022.0
20260901070016 15 0 0.0 0.0 0.00 0.00 0.00 92 1021.9
20260901065020 15 0 0.0 0.0 0.00 0.00 0.00 92 1021.9
20260901063020 14 0 0.0 0.0 0.00 0.00 0.00 93 1021.9
20260901062016 14 0 0.0 0.0 0.00 0.00 0.00 93 1021.9
20260901060016 14 0 0.0 0.0 0.00 0.00 0.00 94 1021.7
20260901054021 13 0 0.0 0.0 0.00 0.00 0.00 94 1021.5
20260901053016 13 0 0.0 0.0 0.00 0.00 0.00 94 1021.4
20260901051025 13 0 0.0 0.0 0.00 0.00 0.00 95 1021.3
20260901045021 13 0 0.0 0.0 0.00 0.00 0.00 95 1021.3
20260901044019 13 0 0.0 0.0 0.00 0.00 0.00 95 1021.2
20260901043022 13 0 0.0 0.0 0.00 0.00 0.00 95 1021.2
20260901042020 13 0 0.0 0.0 0.00 0.00 0.00 95 1021.0
20260901041024 13 0 0.0 0.0 0.00 0.00 0.00 95 1020.9
20260901040016 13 0 0.0 0.0 0.00 0.00 0.00 94 1020.8
20260901035021 13 0 0.0 0.0 0.00 0.00 0.00 94 1020.8
20260901034023 14 0 0.0 0.0 0.00 0.00 0.00 94 1020.8
20260901033020 14 0 0.0 0.0 0.00 0.00 0.00 94 1020.8
20260901032021 14 0 0.0 0.0 0.00 0.00 0.00 94 1020.7
20260901031024 14 0 0.0 0.0 0.00 0.00 0.00 94 1020.7
20260901030021 14 0 0.0 0.0 0.00 0.00 0.00 94 1020.7
20260901025023 14 0 0.0 0.0 0.00 0.00 0.00 94 1020.7
20260901024025 14 0 0.0 0.0 0.00 0.00 0.00 93 1020.7
20260901022021 14 0 0.0 0.0 0.00 0.00 0.00 93 1020.7
20260901021024 14 0 0.0 0.0 0.00 0.00 0.00 93 1020.7
20260901020017 14 0 0.0 0.0 0.00 0.00 0.00 93 1020.7
20260901015019 14 0 0.0 0.0 0.00 0.00 0.00 93 1020.6
20260901013026 14 0 0.0 0.0 0.00 0.00 0.00 93 1020.5
20260901012027 14 0 0.0 0.0 0.00 0.00 0.00 93 1020.5
20260901011030 14 0 0.0 0.0 0.00 0.00 0.00 93 1020.6
20260901010030 14 0 0.0 0.0 0.00 0.00 0.00 93 1020.7
20260901005032 14 0 0.0 0.0 0.00 0.00 0.00 92 1020.7
20260901004032 14 0 0.0 0.0 0.00 0.00 0.00 92 1020.6
20260901003029 14 0 0.0 0.0 0.00 0.00 0.00 92 1020.6
20260901002031 15 0 0.0 0.0 0.00 0.00 0.00 92 1020.5
20260901001034 15 0 0.0 0.0 0.00 0.00 0.00 91 1020.6
20260901000044 15 0 0.0 0.0 0.00 0.00 0.00 92 1020.6
20260831235038 15 0 0.0 0.0 0.00 0.00 0.00 92 1020.6
20260831234040 15 0 0.0 0.0 0.00 0.00 0.00 92 1020.6
20260831232041 15 0 0.0 0.0 0.00 0.00 0.00 91 1020.5